User: anonymous   Login
Location: Unspecified
(0.0000°N, 0.0000°E)
Time: 13:51:43
(UTC+02:00)
Language:

Cosmos 1758 - Orbit

View from above orbital plane
View from above orbital plane
View from above satellite
View from above satellite

Ground track
Ground track

The orbit data is extracted from the following two-line orbital elements,

1 16791U 86046A   16272.12074364  .00001214  00000-0  85402-4 0  9994
2 16791  82.4679 287.3517 0015123 259.9981  99.9539 15.04145518646284
Epoch (UTC): 28 September 2016 02:53:52
Eccentricity: 0.0015123
inclination: 82.4679°
perigee height: 543 km
apogee height: 564 km
right ascension of ascending node: 287.3517°
argument of perigee: 259.9981°
revolutions per day: 15.04145518
mean anomaly at epoch: 99.9539°
orbit number at epoch: 64628

The dashed part of the orbit path shows where the satellite is in the earth's shadow,  

DLR